Regional Weather Roundup
Issued by NWS

Home | Current Version | Previous Version | Graphics & Text | Print | Product List | Glossary On
Versions: 1 2 3 4 5 6 7 8 9 10 11 12 13 14 15 16 17 18 19 20 21 22 23 24 25 26 27 28 29 30 31 32 33 34 35 36 37 38 39 40 41 42 43 44 45 46 47 48 49 50
000
ASUS43 KMPX 210401
RWRMN
WEATHER ROUNDUP FOR MINNESOTA
NATIONAL WEATHER SERVICE TWIN CITIES/CHANHASSEN MN
1100 PM CDT SUN APR 20 2014


NOTE: "FAIR" INDICATES FEW OR NO CLOUDS BELOW 12,000 FEET WITH NO
SIGNIFICANT WEATHER AND/OR OBSTRUCTIONS TO VISIBILITY. N/A MEANS
CURRENT SKY AND/OR WEATHER CONDITIONS ARE NOT AVAILABLE.

MNZ060>063-068>070-210500-
   Twin Cities Metro

CITY           SKY/WX    TMP DP  RH WIND       PRES   REMARKS
TWIN CITIES    MOCLDY    62  54  74 E7        29.94S
ST PAUL        MOCLDY    57  52  83 E7        29.94F
CRYSTAL        PTCLDY    64  33  31 E3        29.94S
BLAINE         PTCLDY    59  34  38 NE6       29.94F
EDEN PRAIRIE   PTCLDY    63  53  70 E6        29.93S
LAKEVILLE      MOCLDY    54  52  94 CALM      29.94S
SOUTH ST PAUL  MOCLDY    64  54  71 CALM      29.95S
LAKE ELMO      CLOUDY    59  54  82 CALM      29.97R
$$
MNZ001>005-007-008-013>017-022>024-027-028-210500-
   Northwest Minnesota

CITY           SKY/WX    TMP DP  RH WIND       PRES   REMARKS
BEMIDJI        PTCLDY    49  31  48 SE9       29.88F
HALLOCK        LGT RAIN  55  41  58 W17       29.86R
ROSEAU         MOCLDY    52  39  62 S10       29.81S
WARROAD        MOCLDY    45  37  76 SE6       29.81F
THIEF RVR FALL PTCLDY    59  36  41 SW14      29.88R
CROOKSTON      MOCLDY    59  36  41 NW13      29.89R
FOSSTON        PTCLDY    55  28  35 SE10      29.86F
DETROIT LAKES  MOCLDY    54  34  47 S8        29.90F
MOORHEAD       PTCLDY    57  39  51 S10       29.87F
PARK RAPIDS    PTCLDY    51  29  42 S7        29.91F
$$
MNZ006-009>011-018-025>026-210500-
   North Central Minnesota

CITY           SKY/WX    TMP DP  RH WIND       PRES   REMARKS
BAUDETTE       MOCLDY    48  35  60 SE7       29.85F
FLAG ISLAND    MOCLDY    46  34  61 SE9G16    29.81F
INTL FALLS     MOCLDY    40  32  73 E8        29.89F
WASKISH        PTCLDY    43  34  70 SE5       29.87F
BIG FORK       PTCLDY    45  32  61 S5        29.92F
LONGVILLE      PTCLDY    39  30  70 CALM      29.93F
GRAND RAPIDS   PTCLDY    52  28  40 SE7       29.94F
CRANE LAKE     PTCLDY    28  23  80 CALM      29.95F
ORR            PTCLDY    48  28  46 CALM      29.91S
COOK           PTCLDY    37  28  70 CALM      29.94F
$$
MNZ012-019>021-037-210500-
   Northeast Minnesota

CITY           SKY/WX    TMP DP  RH WIND       PRES   REMARKS
DULUTH         CLEAR     49  28  44 SE6       29.96F
ELY            CLEAR     36  27  69 CALM      29.95F
HIBBING        PTCLDY    36  30  79 CALM      29.94F
EVELETH        CLEAR     34  30  86 NE3       29.96F
DULUTH HARBOR  CLEAR     34  30  86 CALM      29.98F
SILVER BAY     CLEAR     34  30  86 CALM      29.96F
GRAND MARAIS     N/A     34  31  88 CALM      29.99S
G MARAIS ARPRT CLEAR     34  25  69 CALM      29.99F
$$
MNZ029>031-032-039>041-046>048-054>057-064-210500-
   West Central Minnesota

CITY           SKY/WX    TMP DP  RH WIND       PRES   REMARKS
FERGUS FALLS   MOCLDY    59  32  36 SE10      29.87S
WHEATON        MOCLDY    59  41  51 SE13      29.92S
MORRIS         PTCLDY    54  39  58 E10       29.91S
ALEXANDRIA     PTCLDY    57  36  45 SE5       29.94F
ELBOW LAKE     FAIR      57  37  48 SE8       29.91F
WADENA         PTCLDY    52  39  62 SE5       29.92F
GLENWOOD       PTCLDY    55  39  54 E6        29.94F
APPLETON       PTCLDY    59  39  47 E7        29.91S
BENSON         CLOUDY    61  37  41 SE5       29.92S
ORTONVILLE     PTCLDY    59  37  44 E9        29.91S
MADISON        PTCLDY    57  45  62 E6        29.91S
WILLMAR        LGT RAIN  61  37  41 E8        29.94S
$$
MNZ033>034-036-042>043-049>051-058-059-210500-
   Central Minnesota

CITY           SKY/WX    TMP DP  RH WIND       PRES   REMARKS
ST CLOUD       PTCLDY    54  38  54 E3        29.94F
SAUK CENTRE    CLOUDY    53  42  65 CALM      29.94F
PAYNESVILLE    MOCLDY    56  38  51 CALM      29.95R
AITKIN         CLEAR     43  36  75 CALM      29.93F
PINE RIVER     CLEAR     45  37  76 CALM      29.97F
BRAINERD       CLEAR     53  31  42 SE3       29.94F
STAPLES        CLEAR     54  32  43 SE5       29.93F
LONG PRAIRIE   MOCLDY    52  41  66 CALM      29.95F
LITTLE FALLS   CLEAR     50  34  53 CALM      29.94F
LITCHFIELD     MOCLDY    63  39  42 E8        29.94F
BUFFALO        PTCLDY    58  37  45 NE5       29.95F
MAPLE LAKE     PTCLDY    56  40  55 CALM      29.95F
$$
MNZ037-044-045-052-053-210500-
   East Central Minnesota

CITY           SKY/WX    TMP DP  RH WIND       PRES   REMARKS
PRINCETON      CLEAR     52  37  58 CALM      29.95S
MORA           CLEAR     43  36  75 CALM      29.97S
CAMBRIDGE      CLEAR     50  36  57 CALM      29.93S
RUSH CITY      PTCLDY    49  33  53 CALM      29.96R
MOOSE LAKE     CLEAR     45  28  53 CALM      29.94F
HINCKLEY       FAIR      43  36  75 CALM      29.96R
CLOQUET        CLEAR     52  28  40 CALM      29.96F
MCGREGOR       CLEAR     50  32  50 SE3       29.95F
$$
MNZ071>073-080-081-089-090-097-098-210500-
   Southwest Minnesota

CITY           SKY/WX    TMP DP  RH WIND       PRES   REMARKS
MONTEVIDEO     CLOUDY    61  45  55 SE9       29.92S
GRANITE FALLS  MOCLDY    58  44  61 E5        29.93R
CANBY          MOCLDY    56  44  64 CALM      29.92S
MARSHALL       PTCLDY    61  48  63 SE7       29.91S
REDWOOD FALLS  MOCLDY    64  52  64 SE8       29.91R
OLIVIA         MOCLDY    59  45  58 E5        29.92R
PIPESTONE      CLEAR     61  50  67 E7        29.91S
WINDOM         CLOUDY    63  54  72 E6        29.93S
WORTHINGTON    CLOUDY    64  46  52 SE10      29.94R
JACKSON        CLOUDY    63  54  72 E3        29.93S
TRACY          PTCLDY    60  52  73 E8        29.92S
SLAYTON        PTCLDY    60  51  73 E9        29.92S
$$
MNZ065>067-074>077-082>085-091>093-210500-
   South Central Minnesota

CITY           SKY/WX    TMP DP  RH WIND       PRES   REMARKS
MANKATO        CLOUDY    63  54  72 E8        29.93S
NEW ULM        MOCLDY    63  55  77 SE6       29.92S
ST JAMES       CLOUDY    61  55  82 CALM      29.94R
FAIRMONT       CLOUDY    63  54  72 E7        29.94F
GLENCOE        MOCLDY    58  49  71 E5        29.93S
FARIBAULT      CLOUDY    64  54  68 E7        29.95S
OWATONNA       CLOUDY    61  55  82 E10       29.94F
WASECA         CLOUDY    61  55  82 E9        29.95S
ALBERT LEA     CLOUDY    61  55  82 E9        29.94F
$$
MNZ078>079-086>088-094>096-210500-
   Southeast Minnesota

CITY           SKY/WX    TMP DP  RH WIND       PRES   REMARKS
ROCHESTER      CLOUDY    57  54  89 SE7       29.97F
RED WING       CLOUDY    55  52  88 CALM      29.95S
STANTON        CLOUDY    62  55  77 SE7       29.93F
DODGE CENTER   CLOUDY    61  57  88 SE6       29.96F
WINONA           N/A    N/A N/A N/A MISG        N/A
AUSTIN         RAIN      57  55  94 E7        29.95F
PRESTON        CLOUDY    58  55  91 CALM      29.97F
$$
ABBREVIATIONS USED IN REMARKS
   TC - TEMPERATURES IN CELSIUS
  WCI - WIND CHILL INDEX
   HX - HEAT INDEX
  VSB - VISIBILITY
$$



USA.gov is the U.S. government's official web portal to all federal, state and local government web resources and services.